Tracking 18942 objects as of 17-Jan-2018
HD Live streaming from Space Station
objects crossing your sky now

COSMOS 2251 DEB

Track COSMOS 2251 DEB now!
10-day predictions


NORAD ID: 34447
Int'l Code: 1993-036SQ
Perigee: 625.6 km
Apogee: 651.0 km
Inclination: 74.0 °
Period: 97.3 minutes
Semi major axis: 7009 km
RCS: 0.038 m2 (small)
Launch date: June 16, 1993
Source: Commonwealth of Independent States (former USSR) (CIS)
Launch site: PLESETSK MISSILE AND SPACE COMPLEX (PKMTR)

Note: This is SATELLITE DEBRIS
aabbcc
Your satellite tracking list
Your tracking list is empty




NASA's NSSDC Master Catalog

Two Line Element Set (TLE):
1 34447U 93036SQ  18015.77405784 +.00001015 +00000-0 +14039-3 0  9997
2 34447 074.0255 298.1527 0018090 068.0596 323.1965 14.79424229472997
Source of the keplerian elements: AFSPC